DW5759 Weather Reports


Display with metric or nautical units.
time (UTC)temp
F
wind
direction
speed
MPH
gust
MPH
rain 1hr
in
rain 24hr
in
rain mn
in
humidity
%
barometer
mb
20260504050022 41 290 0.0 0.0 0.00 0.00 0.00 76 1011.0
20260504044522 41 158 0.0 0.0 0.00 0.00 0.00 75 1011.1
20260504043012 42 158 0.0 0.0 0.00 0.00 0.00 74 1011.1
20260504041513 42 155 0.0 0.0 0.00 0.00 0.00 75 1011.0
20260504040020 42 155 0.0 0.0 0.00 0.00 0.00 74 1011.0
20260504034523 42 155 0.0 0.0 0.00 0.00 0.00 74 1010.9
20260504033026 42 155 0.0 0.0 0.00 0.00 0.00 73 1010.9
20260504031512 43 155 0.0 1.0 0.00 0.00 0.00 72 1010.9
20260504030018 44 289 0.0 0.0 0.00 0.00 0.00 69 1010.8
20260504024518 44 277 0.0 0.0 0.00 0.00 0.00 69 1010.8
20260504023024 45 277 0.0 0.0 0.00 0.00 0.00 67 1010.7
20260504021525 46 271 0.0 0.0 0.00 0.00 0.00 65 1010.6
20260504020010 47 269 0.0 0.0 0.00 0.00 0.00 63 1010.4
20260504014503 47 268 0.0 0.0 0.00 0.00 0.00 61 1010.4
20260504013005 48 266 0.0 0.0 0.00 0.00 0.00 57 1010.5
20260504011505 50 265 0.0 0.0 0.00 0.00 0.00 54 1010.6
20260504010007 52 262 0.0 0.0 0.00 0.00 0.00 50 1010.4
20260504004532 53 262 0.0 8.0 0.00 0.00 0.00 50 1010.3
20260504003003 53 322 1.0 7.0 0.00 0.00 0.00 48 1010.1
20260504001510 53 283 0.0 6.0 0.00 0.00 0.00 48 1009.9
20260504000004 55 253 2.0 6.0 0.00 0.00 0.00 43 1009.4
20260503234513 55 260 1.0 6.0 0.00 0.00 0.00 43 1009.6
20260503233015 56 238 0.0 6.0 0.00 0.00 0.00 40 1009.2
20260503231504 56 293 2.0 7.0 0.00 0.00 0.00 39 1009.2
20260503230004 56 310 1.0 6.0 0.00 0.00 0.00 37 1008.9
20260503224508 56 285 2.0 9.0 0.00 0.00 0.00 37 1008.7
20260503223012 56 281 2.0 7.0 0.00 0.00 0.00 35 1008.7
20260503221517 57 299 0.0 5.0 0.00 0.00 0.00 35 1008.8
20260503220012 58 284 3.0 8.0 0.00 0.00 0.00 31 1008.7
20260503214512 58 265 2.0 12.0 0.00 0.00 0.00 30 1008.6
20260503213016 57 287 4.0 11.0 0.00 0.00 0.00 29 1008.6
20260503211515 57 308 4.0 9.0 0.00 0.00 0.00 30 1008.6
20260503210019 57 282 1.0 7.0 0.00 0.00 0.00 33 1008.6
20260503204502 57 319 1.0 12.0 0.00 0.00 0.00 34 1008.7
20260503203012 56 335 5.0 12.0 0.00 0.00 0.00 31 1008.8
20260503201512 57 333 5.0 13.0 0.00 0.00 0.00 34 1009.0
20260503200016 56 329 5.0 11.0 0.00 0.00 0.00 34 1008.8
20260503194522 56 333 4.0 14.0 0.00 0.00 0.00 33 1009.1
20260503193026 57 276 3.0 13.0 0.00 0.00 0.00 35 1009.2
20260503191508 55 305 4.0 8.0 0.00 0.00 0.00 37 1009.4
20260503190017 54 356 0.0 6.0 0.00 0.00 0.00 40 1009.5
20260503184520 55 31 2.0 8.0 0.00 0.00 0.00 39 1009.7
20260503183021 53 261 3.0 9.0 0.00 0.00 0.00 39 1009.8
20260503181517 52 276 5.0 13.0 0.00 0.00 0.00 42 1010.2
20260503180021 51 278 3.0 14.0 0.00 0.00 0.00 40 1010.0
20260503174516 51 337 2.0 8.0 0.00 0.00 0.00 43 1010.2
20260503173020 50 291 3.0 11.0 0.00 0.00 0.00 42 1010.5
20260503171526 50 247 4.0 14.0 0.00 0.00 0.00 43 1010.5
20260503081511 35 326 0.0 0.0 0.00 0.01 0.00 80 1010.3